Regional Weather Roundup
Issued by NWS

Home | Current Version | Previous Version | Text Only | Print | Product List | Glossary On
Versions: 1 2 3 4 5 6 7 8 9 10 11 12 13 14 15 16 17 18 19 20 21 22 23 24 25 26 27 28 29 30 31 32 33 34 35 36 37 38 39 40 41 42 43 44 45 46 47 48 49 50
000
ASUS43 KDTX 242210
RWRMI
MICHIGAN HOURLY REGIONAL WEATHER ROUNDUP
NATIONAL WEATHER SERVICE DETROIT/PONTIAC MI
600 PM EDT SUN MAY 24 2015

NOTE: "FAIR" INDICATES FEW OR NO CLOUDS BELOW 12,000 FEET WITH NO
SIGNIFICANT WEATHER AND/OR OBSTRUCTION TO VISIBILITY.

MIZ047>049-052>055-059>063-066>070-074>076-081>083-242300-
SOUTHEAST LOWER MICHIGAN

CITY           SKY/WX    TMP DP  RH WIND       PRES   REMARKS
ADRIAN         CLOUDY    79  54  41 S6        30.13F
ALMA           CLOUDY    67  58  71 E6        30.14F
ANN ARBOR      CLOUDY    76  57  51 E7        30.14F
BAD AXE        CLOUDY    71  41  33 SW16G25   30.17S
CARO           DRIZZLE   69  55  61 CALM      30.16F
DETROIT CITY   CLOUDY    76  48  37 CALM      30.16F
DETROIT        CLOUDY    77  50  38 E6        30.15F
FLINT          CLOUDY    72  58  61 E6        30.15F
GROSSE ILE     CLOUDY    73  55  53 CALM      30.14F
HILLSDALE      CLOUDY    79  54  42 S5        30.12F
HOWELL         CLOUDY    75  52  44 SE6       30.15F

CITY           SKY/WX    TMP DP  RH WIND       PRES   REMARKS
JACKSON        CLOUDY    73  56  54 E5        30.13F
LAMBERTVILLE   CLOUDY    77  54  44 NE6       30.13F
LANSING        CLOUDY    74  55  51 SE9       30.13F
LAPEER         LGT RAIN  72  50  45 SW5       30.18S
MASON          CLOUDY    72  57  58 SE5       30.13F
MONROE         CLOUDY    73  54  49 E9        30.13F
MT. CLEMENS    CLOUDY    74  52  44 W5        30.15S
PONTIAC        CLOUDY    73  52  47 E5        30.15F
PORT HOPE        N/A     75  41  29 SW13G22   30.13F
PORT HURON     CLOUDY    75  50  41 SW6       30.18R
TRI CITIES     LGT RAIN  70  54  56 SW7       30.16F
MIDLAND        CLOUDY    68  55  61 CALM      30.15F
TROY           CLOUDY    77  49  37 SE3       30.18F
SAGINAW HB     DRIZZLE   70  52  52 SW6       30.16F
$$
MIZ043>046-050>051-056>058-064>065-071>073-077>080-242300-
SOUTHWEST LOWER MICHIGAN

CITY           SKY/WX    TMP DP  RH WIND       PRES   REMARKS
BATTLE CREEK   CLOUDY    75  55  49 SE7       30.10F
BENTON HARBOR  CLOUDY    75  58  55 E13       30.01F
BIG RAPIDS     LGT RAIN  64  53  66 SE3       30.11F
COLDWATER      CLOUDY    75  55  50 SE8       30.09F
FREMONT        LGT RAIN  63  57  80 E6        30.09F
HOLLAND        CLOUDY    69  56  62 E9        30.06F
GRAND RAPIDS   LGT RAIN  70  54  56 E8        30.09F
IONIA          FAIR      73  49  43 E10       30.10F
KALAMAZOO      CLOUDY    76  56  49 E6        30.08F
LUDINGTON      RAIN      62  58  87 E3        30.10F
MARSHALL       CLOUDY    75  56  51 E7        30.09F
MOUNT PLEASANT DRIZZLE   67  57  70 E5        30.13F
MUSKEGON       LGT RAIN  65  57  75 E10       30.06F
SOUTH HAVEN    CLOUDY    74  55  52 E9        30.03F
$$
MIZ016>042-242300-
NORTHERN LOWER MICHIGAN

CITY           SKY/WX    TMP DP  RH WIND       PRES   REMARKS
ALPENA         CLOUDY    78  46  32 SW8       30.08S
BEAVER ISLAND  CLOUDY    58  46  65 SW15G22   30.10F
BELLAIRE       CLOUDY    70  49  47 CALM      30.10S
CADILLAC       DRIZZLE   62  53  73 SE7       30.12F
CHARLEVOIX     CLOUDY    61  49  63 W12       30.12F
FRANKFORT      LGT RAIN  67  48  50 S7        30.10F
GAYLORD        CLOUDY    71  48  43 W7        30.11S
GRAYLING       CLOUDY    70  45  40 S12       30.13S
HARBOR SPRINGS CLOUDY    63  49  60 W8G17     30.11S
HOUGHTON LAKE  CLOUDY    65  50  58 S10       30.15S
MANISTEE       CLOUDY    63  54  72 CALM      30.11F
OSCODA         CLOUDY    75  45  34 SW16G26   30.11R
PELLSTON       CLOUDY    68  49  50 W9G20     30.10F
ROGERS CITY    CLOUDY    60  48  64 CALM      30.10R
TRAVERSE CITY  LGT RAIN  71  49  45 S9G17     30.09S
$$
MIZ007>008-015-242300-
EASTERN UPPER MICHIGAN

CITY           SKY/WX    TMP DP  RH WIND       PRES   REMARKS
KINROSS        CLOUDY    70  41  35 SW12G17   30.08R
MACKINAC ISLAN CLOUDY    58  45  60 W10G16    30.10S
NEWBERRY       CLOUDY    67  48  50 S14G24    30.07F
S. S. MARIE    CLOUDY    74  44  34 W10       30.05S
MUNISING         N/A     76  44  32 S12G20    30.01F
$$
MIZ004>006-011>014-085-242300-
CENTRAL UPPER MICHIGAN

CITY           SKY/WX    TMP DP  RH WIND       PRES   REMARKS
MANISTIQUE     CLOUDY    54  45  70 S8        30.08S
ESCANABA       CLOUDY    64  50  59 S17G23    30.03F
MENOMINEE      CLOUDY    63  52  67 SW8G18    30.07S
SAWYER-GWINN   CLOUDY    73  46  38 S15       30.01F
$$
MIZ001>003-009>011-084-242300-
WESTERN UPPER MICHIGAN

CITY           SKY/WX    TMP DP  RH WIND       PRES   REMARKS
IRON MOUNTAIN  CLOUDY    71  52  50 S13       30.02F
HOUGHTON       CLOUDY    73  44  35 N8        29.98F
COPPER HARBOR    N/A     55  40  56 CALM      29.99F
IRONWOOD       CLOUDY    70  46  43 N8        29.95F
$$

ABBREVIATIONS USED IN REMARKS
   TC - TEMPERATURE IN CELSIUS
  WCI - WIND CHILL INDEX
   HX - HEAT INDEX
  VSB - VISIBILITY




USA.gov is the U.S. government's official web portal to all federal, state and local government web resources and services.